Regional Weather Roundup
Issued by NWS

Home | Current Version | Previous Version | Graphics & Text | Print | Product List | Glossary Off
Versions: 1 2 3 4 5 6 7 8 9 10 11 12 13 14 15 16 17 18 19 20 21 22 23 24 25 26 27

000
ASUS45 KBOU 250407
RWRCO

WEATHER ROUNDUP FOR COLORADO
NATIONAL WEATHER SERVICE DENVER/BOULDER CO
1000 PM MDT FRI MAR 24 2017

NOTE: "FAIR" INDICATES FEW OR NO CLOUDS BELOW 12000 FEET WITH NO
SIGNIFICANT WEATHER AND/OR OBSTRUCTIONS TO VISIBILITY.

COZ001>005-013-030-031-250500-
...NORTHWEST COLORADO...

CITY           SKY/WX    TMP DP  RH WIND       PRES   REMARKS
CRAIG          FAIR      35  24  64 CALM      30.15S
HAYDEN         FAIR      37  19  48 CALM      30.16S
MEEKER         FAIR      39  25  57 CALM      30.16R
MOUNT WERNER   NOT AVBL
STEAMBOAT SPGS FAIR      38  25  57 E6        30.16F
WALDEN         NOT AVBL
$$

COZ006>008-011-250500-
...WEST CENTRAL VALLEYS...

CITY           SKY/WX    TMP DP  RH WIND       PRES   REMARKS
GRAND JUNCTION FAIR      45  27  49 CALM      30.13R
MONTROSE       FAIR      43  32  65 SE12      30.19R
EAGLE          CLEAR     41  27  56 E10       30.20R
RIFLE          FAIR      45  28  51 CALM      30.15R
DELTA          FAIR      48  27  43 N5        30.17R
NUCLA          FAIR      43  30  61 E10       30.22R
$$

COZ017>023-064>068-250500-
...SOUTHWEST COLORADO...

CITY           SKY/WX    TMP DP  RH WIND       PRES   REMARKS
DURANGO        FAIR      43  23  45 W6        30.14R
CORTEZ         FAIR      41  28  60 S3        30.19R
PAGOSA SPRINGS FAIR      40  35  82 NE3       30.20R
TELLURIDE      NOT AVBL
WOLF CREEK PAS FAIR      28  18  64 SW3       30.37S
$$

COZ009-010-012-014-032>034-037-058>063-250500-
...CENTRAL COLORADO...

CITY           SKY/WX    TMP DP  RH WIND       PRES   REMARKS
ASPEN          FAIR      33  27  78 SW8       30.21R WCI  26
BUENA VISTA    FAIR      35  23  59 SE7       30.22R WCI  30
COPPER MTN     FAIR      28  19  69 MISG      30.30S
BERTHOUD PASS  FAIR      18   7  62 N18G28    30.27R WCI   2
COTTONWOOD PAS FAIR      37  18  44 W8G16     30.25S
GUNNISON       FAIR      37  27  67 S5        30.24R
KREMMLING      FAIR      37  27  65 CALM      30.21R
LEADVILLE      FAIR      25  18  74 NE6       30.24S WCI  18
MONARCH PASS   FAIR      23  21  93 SW18      30.41R WCI   9
SALIDA         FAIR      38  26  61 SW3       30.29R
SUNLIGHT       FAIR      27  23  86 SW8       30.32F WCI  18
WILKERSON PASS MOCLDY    27  21  80 W12G21    30.27R WCI  16
$$

COZ069>075-250500-
...SAN LUIS VALLEY/SANGRE DE CRISTO MOUNTAINS...

CITY           SKY/WX    TMP DP  RH WIND       PRES   REMARKS
ALAMOSA        FAIR      32  28  85 CALM      30.21R
LA VETA PASS   NOT AVBL
SAGUACHE       FAIR      39  23  52 NW5       30.23R
$$

COZ035-036-038>040-250500-
...NORTHERN COLORADO FRONT RANGE...

CITY           SKY/WX    TMP DP  RH WIND       PRES   REMARKS
DENVER INTL AP FAIR      36  30  79 S9        30.15R
DMNS CITY PARK   N/A     43  32  67 E8        30.14S
AURORA         CLEAR     36  33  90 S8        30.16S
FRONT RANGE AP NOT AVBL
ERIE MUNI ARPT FAIR      38  31  77 CALM      30.14S
BOULDER MUN AP FAIR      43  32  65 CALM      30.13F
CENTENNIAL     FAIR      36  31  82 S7        30.15S
BROOMFIELD     CLEAR     39  30  70 CALM      30.14S
FORT COLLINS   FAIR      42  29  59 SE8       30.14S
LONGMONT       FAIR      40  29  65 W5        30.16S
$$

COZ041-046-047-076>085-087-088-250500-
...PIKES PEAK/PALMER DIVIDE AND SOUTHERN FOOTHILLS...

CITY           SKY/WX    TMP DP  RH WIND       PRES   REMARKS
COLO. SPRINGS  FAIR      39  30  70 NW3       30.18S
A. F. ACADEMY  FAIR      31  29  94 NW6       30.17S WCI  25
SCHRIEVER AFB  FAIR      38  29  70 NW7       30.18R
ELLICOTT         N/A    N/A N/A N/A N7        30.16S
FALCON         FAIR      31  29  92 NW6       30.19R WCI  25
FORT CARSON    NOT AVBL
LIMON          FAIR      32  31  96 W7        30.15S WCI  26
MONUMENT HILL  FAIR      28  27  93 CALM      30.19S
TRINIDAD       FAIR      35  30  82 W9        30.19S WCI  28
$$

COZ042>045-048>051-090-091-250500-
...NORTHEAST COLORADO...

CITY           SKY/WX    TMP DP  RH WIND       PRES   REMARKS
GREELEY ARPT   FAIR      38  30  73 CALM      30.15S
AKRON          FAIR      34  32  92 E8        30.09F WCI  27
BURLINGTON     FAIR      35  33  92 NW9       30.10S WCI  28
WRAY           NOT AVBL
STERLING       FAIR      37  36  93 E6        30.09F
HOLYOKE        FAIR      37  34  87 NW7       30.12S
FORT MORGAN    FAIR      39  33  78 W3        30.15R
$$

COZ086-089-092>099-250500-
...SOUTHEAST COLORADO...

CITY           SKY/WX    TMP DP  RH WIND       PRES   REMARKS
PUEBLO         FAIR      37  32  82 NW3       30.16F
LA JUNTA       FAIR      39  35  86 S3        30.14F
LAMAR          FAIR      36  32  85 NW8       30.11R
SPRINGFIELD      N/A     35  33  92 NW23G32   30.09R WCI  23
$$




USA.gov is the U.S. government's official web portal to all federal, state and local government web resources and services.